Location: Ohmer (historical)
(38.0096°N, 122.0227°W)
Time: 01:34:15
(UTC+00:00)

Exosat Rocket - Pass Details

Date: 14 February 2026
Orbit: 761 x 2512 km, 72.3° (Epoch: 10 March)

Event Time Altitude Azimuth Distance (km) Brightness Sun altitude
Exits shadow 13:14:17 10° 336° (NNW) 2,458 5.9 -21.2°
Maximum altitude 13:19:35 76° 252° (WSW) 795 3.4 -20.2°
Drops below altitude 10° 13:24:33 10° 167° (SSE) 2,311 6.2 -19.2°
Sets 13:26:56 0° 165° (SSE) 3,298 7.0 -18.7°
